Wind_Speed
36 37 38 38 40 41 42 41 41 41 39 36 33 31 35 39 39 37 34 33 35 35 36 39 39 36 34 33 29 25 24 23 20 18 18 18 17 15 13 11 9 5 8 11 11 13 16 19 21 21 21 22 23 24 26 28 28 27 27 30 31 30 30 28 25 25 29 30 27 27 31 30 29 30 28 25 23 22 22 24 23 18 17 20 23 23
37 41 41 39 41 43 43 43 42 42 41 38 34 31 35 40 39 37 33 32 34 33 35 38 40 38 35 34 30 26 24 24 22 19 17 17 16 14 14 12 9 7 4 8 12 13 16 20 22 23 22 22 22 23 26 28 29 28 28 30 30 29 30 29 27 26 28 30 30 30 31 30 29 29 29 29 26 21 21 23 22 19 17 19 21 21
38 44 42 39 41 44 43 44 43 43 42 38 33 32 36 40 40 37 33 31 32 33 35 39 40 39 36 35 31 28 26 24 23 22 19 17 16 14 14 13 10 7 3 3 9 12 14 19 23 24 24 24 23 23 25 27 28 28 28 30 30 30 32 33 31 30 30 32 32 32 33 33 32 33 32 31 29 25 23 22 21 22 22 22 22 20
38 43 42 39 41 43 43 43 43 43 41 36 33 33 37 40 39 35 32 31 31 32 37 40 40 39 38 36 33 30 28 26 23 23 21 18 15 14 14 13 11 9 4 1 4 8 12 18 22 25 27 26 26 25 25 26 28 28 28 29 29 29 32 35 34 33 32 32 34 34 34 34 35 36 34 31 30 29 28 24 20 23 27 26 24 22
38 42 42 40 41 42 43 44 44 42 39 37 37 37 38 40 37 33 33 32 30 34 39 39 38 39 38 37 34 32 31 28 24 23 23 21 18 15 14 13 11 9 6 3 4 6 8 14 20 24 27 28 28 27 26 26 28 29 29 29 29 29 29 33 36 35 32 31 33 34 33 36 37 37 35 32 31 31 29 26 25 28 30 28 27 25
40 42 43 43 44 44 45 46 44 42 41 42 42 40 39 37 35 34 33 31 32 38 41 38 36 38 39 38 36 35 34 30 26 24 24 23 21 18 15 14 12 10 8 7 6 6 5 7 15 21 26 29 30 30 29 28 29 29 30 30 30 30 30 31 35 36 33 32 34 34 34 37 39 38 36 32 31 31 29 29 31 33 33 32 31 29
42 42 44 46 47 47 47 46 45 43 42 43 44 43 39 35 34 36 35 34 37 41 42 39 36 37 38 39 38 36 36 34 29 26 26 25 23 20 17 15 13 12 11 10 8 6 6 6 8 14 21 27 30 31 31 31 31 30 31 31 32 32 32 32 33 35 34 34 36 38 38 39 40 39 35 32 32 32 30 32 35 35 34 34 33 31
47 46 47 48 49 51 49 48 48 46 44 44 46 46 40 34 35 37 37 38 41 43 42 41 39 37 37 38 39 37 36 36 31 26 25 25 25 23 20 17 16 14 13 13 13 10 8 7 7 8 13 20 27 31 33 33 33 33 32 32 33 33 33 34 35 35 35 35 36 39 41 40 39 38 35 33 34 35 34 35 37 36 35 35 34 33
53 51 49 49 52 54 53 51 51 50 47 46 47 46 39 35 37 38 38 41 44 43 40 41 42 39 37 38 39 38 37 36 32 27 25 25 27 26 23 21 19 17 14 13 15 15 12 9 8 7 8 11 18 25 31 34 36 36 36 35 34 34 35 35 37 37 37 37 37 39 42 42 40 39 38 36 36 38 37 37 38 38 37 36 36 36
55 53 49 49 54 56 55 54 53 51 49 47 46 43 37 36 38 40 42 44 45 42 40 40 42 40 38 39 39 37 35 34 32 30 30 29 27 26 25 24 23 21 18 14 14 17 17 13 10 9 9 9 10 15 21 28 34 36 38 38 37 37 37 37 38 39 39 40 39 39 41 42 41 41 41 40 40 41 40 38 38 38 37 37 38 38
55 56 51 50 53 56 56 54 53 50 47 45 42 38 35 38 41 42 45 46 45 43 41 41 41 40 40 38 37 35 34 34 33 33 33 31 28 25 22 24 25 24 23 19 16 17 19 18 15 12 11 10 10 10 12 17 24 31 36 39 40 40 40 40 39 40 41 41 42 42 42 42 41 42 42 42 42 44 43 40 38 39 39 39 40 40
56 57 55 52 52 54 54 52 49 46 43 42 39 36 37 40 44 46 48 48 47 45 42 41 41 41 38 34 32 33 34 36 35 35 34 31 30 28 23 24 27 27 26 24 20 17 19 21 19 16 14 12 11 10 10 10 13 19 27 33 38 41 42 43 43 43 42 43 43 44 45 45 44 43 42 43 45 47 46 43 40 40 40 40 40 40
57 57 57 55 53 52 51 48 46 43 42 41 39 38 40 43 47 50 51 50 48 46 43 41 41 39 35 31 31 34 35 37 36 35 36 34 34 33 29 27 29 30 29 26 23 16 15 21 21 20 19 15 13 12 10 10 9 11 16 22 30 36 40 42 44 45 45 45 45 45 47 49 48 46 43 43 45 47 47 44 42 42 42 41 41 41
59 57 57 55 53 52 48 44 44 44 43 42 41 42 45 49 53 54 54 52 48 46 44 41 37 36 35 32 33 36 38 38 36 36 38 39 38 35 31 29 28 30 30 29 27 17 13 22 24 21 23 20 16 14 11 11 10 9 10 13 19 25 32 37 41 44 45 46 47 47 48 50 51 50 47 44 44 46 47 45 45 45 43 43 42 41
61 58 57 55 53 52 48 45 46 47 46 46 48 50 51 54 56 56 56 53 49 46 44 42 39 38 36 34 35 39 41 41 38 38 39 39 39 36 33 31 27 27 29 30 32 24 18 24 27 24 24 23 20 18 14 12 12 12 11 11 13 16 21 28 34 39 42 45 47 48 49 50 51 51 50 48 46 46 47 47 47 47 45 43 42 42
61 59 57 56 55 53 50 50 49 49 51 54 55 56 56 56 58 58 56 54 52 49 46 45 44 43 42 41 41 42 44 44 39 36 38 40 41 40 35 31 28 27 29 30 33 32 26 27 28 26 25 24 22 21 19 15 15 15 14 13 13 13 15 19 24 30 35 40 44 47 49 50 52 52 52 51 50 50 50 50 49 48 47 46 44 43
63 60 57 57 57 53 52 53 52 50 52 56 57 57 57 56 57 57 57 57 55 52 49 48 48 46 46 46 45 44 45 45 38 36 40 43 44 43 36 32 33 33 33 31 32 35 33 31 30 28 26 25 23 23 23 20 18 17 17 17 17 15 14 16 18 21 25 30 35 41 46 49 51 52 53 53 53 52 52 52 51 48 47 47 47 46
65 61 57 56 57 56 55 54 53 51 51 55 57 56 56 56 57 59 60 59 57 54 52 51 50 49 49 48 47 46 46 45 40 39 43 45 44 42 38 37 37 35 33 33 33 35 37 36 34 32 30 29 27 26 25 22 20 19 19 19 19 19 18 17 16 17 20 22 26 30 35 41 46 49 52 54 54 54 54 53 53 50 46 45 48 49
66 63 58 56 57 59 58 55 54 53 53 57 59 57 58 58 59 60 62 61 60 57 54 53 53 52 53 54 52 50 48 47 44 42 44 44 40 38 38 39 38 35 35 37 37 38 39 39 39 37 34 34 33 31 28 25 23 23 23 21 20 21 21 21 18 16 17 19 21 24 26 30 35 40 45 48 50 52 53 54 54 52 49 47 46 46
66 64 58 55 58 61 59 57 57 55 56 59 60 58 58 60 61 62 64 63 62 61 58 56 55 56 58 59 58 56 55 54 52 48 44 42 41 42 44 45 42 40 41 39 37 38 39 40 42 42 40 38 37 34 31 29 26 25 25 24 23 22 22 24 23 20 18 18 19 21 23 25 28 32 36 39 42 44 47 49 50 50 50 48 45 42
68 66 60 56 60 63 61 60 60 60 60 61 61 60 60 62 64 65 66 65 65 64 63 60 58 60 61 60 60 60 56 54 54 53 49 47 49 51 50 48 45 45 45 43 41 41 41 41 43 45 45 43 40 37 33 30 27 25 25 25 24 24 24 25 27 26 23 19 17 18 20 22 24 27 31 35 38 39 40 41 42 43 43 42 41 40
72 69 63 60 63 65 63 63 63 63 64 63 62 63 64 64 66 69 68 67 68 69 66 64 63 63 63 63 63 61 56 55 57 57 56 54 56 55 52 50 50 50 52 54 53 50 45 43 43 46 48 47 45 41 37 33 29 24 22 21 21 26 31 29 28 29 30 25 20 17 18 19 21 23 27 31 35 38 38 37 37 37 38 38 37 36
77 73 68 64 66 67 66 67 67 67 68 67 65 65 67 68 68 70 71 70 72 72 68 68 69 68 68 68 68 65 62 63 63 60 60 61 61 60 58 57 57 57 59 60 57 52 48 45 44 46 49 50 49 45 41 37 31 25 23 23 23 28 35 35 32 31 33 31 26 20 17 17 17 20 23 27 30 33 36 36 36 34 34 35 35 35
82 79 75 70 68 69 68 69 70 71 72 72 68 66 68 70 71 73 74 74 75 73 70 72 73 70 70 72 73 70 67 66 65 62 62 64 64 64 62 60 59 60 61 60 58 55 51 46 43 46 49 50 52 50 45 40 35 33 35 38 36 33 32 33 37 38 36 35 32 26 20 15 15 17 20 22 24 28 31 33 34 34 34 34 34 35
85 84 81 76 71 70 70 72 74 75 77 76 72 69 69 71 73 77 79 78 77 74 73 77 76 72 72 75 77 76 71 69 68 67 68 70 70 69 67 62 60 62 63 61 60 58 54 47 43 44 48 51 52 52 50 45 41 40 41 44 45 41 34 31 34 38 39 38 34 31 25 18 14 15 17 19 20 22 25 28 31 33 34 34 34 34
89 87 85 80 74 70 70 74 77 79 80 79 76 74 74 74 76 79 80 81 79 76 77 80 77 74 75 77 78 79 77 75 74 74 75 76 75 72 71 67 63 65 67 64 61 59 55 50 46 44 47 50 53 54 53 50 47 45 43 44 47 44 38 36 37 38 40 38 34 31 28 22 17 14 13 15 17 18 20 22 25 27 29 31 32 32
92 89 86 82 77 72 70 74 78 80 81 80 78 77 78 79 80 82 84 83 82 81 81 81 79 78 77 78 78 80 80 80 80 80 79 79 78 75 73 71 67 67 68 65 62 60 58 54 51 49 48 50 53 55 55 54 51 49 46 44 44 42 38 38 37 38 42 42 37 32 28 23 20 17 14 13 13 15 16 18 19 21 22 23 24 25
95 91 87 84 79 74 74 76 79 82 82 82 79 77 78 80 83 85 87 86 85 86 84 80 81 82 80 78 78 80 82 83 83 83 82 81 81 79 77 75 70 69 69 66 64 63 61 58 56 54 52 51 53 56 58 57 55 53 51 47 46 45 41 38 36 36 39 43 42 37 31 24 20 18 17 15 14 13 14 15 16 16 17 18 18 17
94 91 88 86 81 77 78 81 81 82 83 82 81 80 79 80 83 86 87 85 86 88 85 80 82 84 81 78 79 81 83 85 86 86 85 85 85 83 80 78 75 72 70 69 69 67 64 63 62 60 57 54 53 56 59 60 58 57 56 53 52 52 49 44 39 35 35 38 41 38 33 27 22 20 19 18 17 16 14 14 15 15 15 15 15 15
93 89 87 86 82 79 82 85 84 83 82 82 82 81 81 82 85 87 87 85 87 89 87 83 82 83 81 79 81 83 87 89 88 87 87 88 88 85 83 81 80 77 73 73 75 73 68 67 67 65 62 58 56 57 59 61 62 61 60 59 57 57 54 47 39 33 32 35 37 34 31 29 28 27 24 20 19 19 19 18 16 16 16 14 14 15
93 87 85 85 82 81 84 87 88 86 84 83 81 79 80 84 88 89 88 88 90 90 88 86 84 82 81 83 85 87 89 91 91 89 89 90 88 86 86 85 83 81 79 80 80 75 70 70 69 67 66 63 60 60 61 62 63 64 64 63 61 59 56 50 44 38 33 33 33 30 27 28 30 31 30 27 25 24 24 24 23 21 18 16 15 16
94 88 84 83 83 82 84 88 89 88 88 85 79 77 80 86 89 90 90 91 91 91 90 90 87 83 83 87 90 90 91 92 92 92 92 92 89 87 87 86 85 85 85 86 83 75 72 71 69 68 70 68 65 62 63 63 64 66 67 66 65 62 58 53 49 43 35 32 33 31 29 30 30 30 32 33 35 33 28 27 28 27 23 20 19 18
94 89 86 85 86 84 83 86 89 90 89 82 77 78 83 87 89 90 91 91 91 90 91 91 89 87 87 89 92 93 93 93 94 94 93 92 89 88 88 89 89 89 88 88 85 79 76 73 70 70 72 71 69 66 65 65 66 67 68 69 68 66 62 57 52 48 44 42 41 39 35 35 35 33 35 38 40 40 37 31 30 31 29 25 23 21
92 90 89 90 90 87 84 86 90 91 86 77 76 82 85 86 88 90 91 90 90 91 92 92 91 90 89 90 93 94 94 94 96 96 93 90 90 91 92 91 91 90 88 87 85 82 79 75 71 72 73 72 71 70 68 67 68 68 69 70 71 70 68 63 56 55 55 53 50 46 43 44 45 42 40 41 42 42 42 38 35 35 34 31 28 26
91 92 93 94 94 91 87 88 91 90 83 76 76 81 83 85 89 92 92 91 90 91 92 93 92 91 91 92 94 95 95 96 97 95 93 93 93 93 92 89 89 88 86 85 85 83 81 77 73 72 73 74 74 74 73 71 71 71 70 71 73 73 72 69 62 59 59 56 56 56 54 54 55 50 44 43 43 43 45 44 42 40 38 36 35 32
93 94 94 95 95 93 90 89 90 88 82 75 73 76 81 87 91 93 94 92 90 90 92 94 94 93 92 93 94 95 95 96 96 93 93 94 93 90 87 86 86 85 83 83 84 84 83 80 75 72 74 76 76 77 78 75 74 75 73 73 75 75 74 72 67 63 61 59 59 61 61 59 58 55 48 43 42 43 46 48 47 45 44 42 41 38
93 94 94 94 94 94 93 90 89 87 81 74 72 76 83 88 92 95 94 91 89 91 93 93 94 95 94 94 94 93 92 93 92 90 91 91 88 84 83 84 84 83 82 82 82 82 81 79 76 74 75 79 80 80 81 80 78 77 77 76 76 76 77 74 70 67 64 62 61 62 63 59 56 52 47 42 39 40 44 49 50 49 49 48 45 42
92 92 94 95 94 94 93 90 88 86 80 74 74 80 84 88 92 94 93 90 89 91 93 93 94 95 94 94 93 89 88 89 87 86 88 86 80 77 78 79 79 78 78 79 79 79 78 75 75 76 77 81 84 84 85 85 83 81 81 80 78 78 79 77 74 70 67 63 62 61 57 53 52 49 43 38 36 37 42 48 52 52 52 50 45 42
92 91 92 94 93 91 91 91 90 86 80 76 78 82 86 90 93 93 92 89 87 90 93 93 93 93 92 91 88 84 82 83 82 83 83 77 71 72 75 75 74 72 73 74 74 75 74 72 73 76 78 81 85 88 88 89 88 85 84 83 81 80 81 80 76 73 71 67 64 60 54 50 51 51 48 43 39 39 43 48 52 55 54 51 47 42
92 91 91 91 90 89 89 91 90 86 80 78 80 84 87 91 93 93 91 87 85 88 91 91 91 90 87 85 82 78 77 77 77 77 76 69 67 70 73 71 69 67 66 67 68 70 71 72 73 76 79 81 84 89 90 90 90 88 87 86 84 81 82 82 80 76 75 72 67 63 60 57 55 55 55 51 46 46 50 49 46 50 55 54 51 48
91 92 91 89 88 88 88 88 90 87 80 78 81 84 88 91 91 91 89 85 83 85 87 88 89 86 83 80 77 74 74 74 72 70 68 65 66 69 69 67 64 62 62 63 65 66 68 70 72 75 78 81 84 87 90 91 91 90 89 89 88 84 83 84 84 80 77 75 70 66 65 64 59 55 54 54 52 51 53 50 41 41 52 56 54 53
89 90 90 88 87 87 87 87 88 85 78 77 80 83 85 87 87 86 85 83 81 82 82 84 84 82 79 77 74 72 72 70 68 66 65 65 66 66 65 62 60 59 61 63 63 64 65 67 70 74 77 81 84 86 89 90 90 90 90 90 90 88 84 85 86 84 81 77 71 67 68 67 63 58 54 55 57 55 52 51 44 39 45 51 53 55
87 88 88 86 85 85 85 85 85 82 78 78 79 80 81 83 82 81 80 79 79 78 77 77 78 77 75 73 70 70 69 67 66 66 66 66 65 64 62 59 58 59 61 63 63 64 64 65 68 72 74 79 83 85 88 90 89 90 90 91 93 92 87 84 87 87 84 80 74 68 69 70 69 65 60 59 60 56 52 53 51 44 41 43 50 56
84 84 85 84 83 83 84 82 80 79 80 80 79 78 79 80 79 77 76 74 73 72 71 70 70 71 70 67 66 66 67 66 65 64 64 65 64 63 61 58 57 60 61 62 62 63 63 64 66 69 72 76 80 84 86 88 89 89 90 92 95 96 89 84 88 89 87 85 81 75 72 73 72 68 62 59 58 53 51 55 55 49 40 36 43 52
80 81 83 82 79 79 81 80 78 78 80 80 79 78 78 77 75 74 73 71 69 66 65 64 63 65 66 64 62 64 64 64 63 63 63 64 63 61 58 56 57 60 60 60 60 61 62 63 65 68 71 74 77 81 83 86 88 89 90 92 96 97 92 86 88 91 90 89 88 83 78 75 73 68 63 61 56 50 51 58 60 55 44 35 35 41
77 78 80 78 74 74 79 78 75 76 78 79 79 78 74 72 70 69 69 67 64 62 61 60 60 62 64 63 63 63 63 63 63 61 61 61 61 58 56 54 56 58 58 57 58 58 60 62 63 66 69 72 75 78 81 83 86 88 90 92 94 97 96 90 88 91 93 91 90 87 83 79 74 69 63 59 57 55 58 64 64 61 53 42 37 37
73 75 77 74 71 75 77 74 71 73 75 76 77 75 71 68 65 64 63 61 60 59 59 59 60 62 64 65 64 63 62 62 61 59 58 59 58 56 55 55 56 57 56 55 55 55 57 59 61 64 68 70 73 76 78 80 83 87 89 91 93 97 98 94 89 90 93 93 91 89 86 83 79 74 67 62 60 61 64 66 66 65 60 49 42 43
70 72 72 70 72 76 75 68 67 71 72 72 72 70 67 66 63 60 59 58 58 58 59 60 62 63 63 64 64 61 60 59 58 57 56 56 54 53 54 54 54 54 54 53 51 51 52 55 58 62 65 69 72 74 76 77 81 85 89 90 92 96 99 96 91 90 93 95 93 91 89 86 84 80 76 72 65 60 60 63 66 68 65 57 51 51
70 70 67 68 73 74 69 63 65 68 67 67 68 66 63 62 59 57 56 58 59 61 61 61 63 63 62 62 60 58 56 55 54 53 52 50 49 49 52 53 52 50 51 51 50 48 49 52 56 60 63 67 71 73 74 75 78 82 87 90 92 95 98 97 93 91 93 94 94 93 92 90 88 86 83 80 73 66 65 67 69 71 72 68 64 61
70 66 63 68 71 68 63 62 63 63 61 61 63 61 59 59 59 56 55 57 59 61 61 60 60 60 59 56 54 53 52 51 51 50 48 46 46 46 48 50 50 48 48 49 48 47 47 50 54 58 61 65 70 72 73 73 75 79 84 89 91 94 97 98 95 92 93 94 95 95 93 92 91 90 88 85 79 74 74 75 75 76 79 79 77 73
68 63 62 65 66 62 60 59 59 57 54 53 56 56 56 59 60 57 55 56 57 57 58 57 54 53 51 50 50 50 48 48 48 47 44 43 43 43 45 46 46 45 46 45 45 45 46 49 52 56 60 64 68 71 71 70 72 76 82 87 91 93 96 98 96 93 93 94 95 95 95 93 93 93 91 88 84 81 79 79 79 80 82 84 85 84
Wind_Direction
331 331 333 333 329 329 330 329 329 330 332 333 332 329 326 328 332 334 338 336 329 330 334 337 341 342 344 345 344 341 335 332 333 336 340 345 354 358 358 4 14 343 262 235 229 227 220 215 211 209 207 203 202 202 202 201 202 205 205 201 201 205 205 202 203 206 204 201 205 208 204 203 207 210 215 222 221 218 221 219 219 231 238 237 237 238
330 327 327 328 324 324 324 324 324 324 326 328 328 326 321 323 328 330 336 332 321 321 326 330 334 337 339 340 342 343 338 331 326 326 332 336 339 351 355 353 4 8 310 243 233 230 227 224 218 214 214 212 210 207 206 204 202 205 209 206 207 211 209 206 205 205 204 205 212 212 206 203 203 207 215 219 216 213 217 221 223 232 235 233 238 243
328 321 321 322 319 319 320 319 320 321 321 322 323 320 316 320 324 327 335 329 315 315 321 325 328 331 334 336 338 340 339 334 327 322 321 323 328 338 346 349 351 0 9 242 243 240 235 231 223 218 218 219 218 214 211 210 208 208 210 209 210 213 211 207 204 202 203 206 213 213 208 204 203 207 215 217 216 216 221 224 224 232 233 230 233 238
323 316 314 316 315 315 316 316 316 317 318 318 317 314 312 316 321 326 331 323 313 313 318 322 323 325 329 331 331 334 334 333 329 322 314 310 317 326 331 336 344 349 357 283 273 266 247 236 228 222 220 221 222 220 218 216 215 214 215 214 213 213 212 209 204 202 206 209 211 212 210 207 207 210 215 217 217 218 224 222 215 224 230 229 229 230
314 309 310 312 311 310 310 311 311 312 313 312 309 308 310 314 319 324 322 313 309 310 314 318 318 319 323 325 326 327 328 329 328 322 314 309 308 313 317 319 328 339 339 332 336 322 266 237 230 226 222 221 223 224 223 223 222 220 221 220 218 217 215 211 207 207 212 213 210 210 210 209 208 209 211 213 216 218 223 220 215 223 228 229 231 233
311 308 309 307 305 304 304 304 304 304 305 304 303 304 308 313 316 317 312 302 303 308 312 314 313 315 318 319 321 322 321 324 326 320 313 308 304 301 302 304 310 322 329 327 329 336 311 250 233 229 225 223 222 224 225 226 227 226 225 225 224 223 219 215 213 214 217 215 210 209 212 213 211 209 209 213 215 217 220 221 224 232 235 235 237 237
310 306 303 301 301 300 300 300 300 300 301 300 299 301 306 311 310 308 301 294 299 307 311 310 309 311 314 315 317 316 315 317 322 320 313 309 306 299 293 292 298 309 318 321 314 311 315 293 248 233 228 226 224 223 223 225 227 228 228 228 228 227 224 221 219 220 220 217 213 213 215 217 216 213 214 216 216 218 222 225 229 235 240 239 237 236
305 301 299 299 299 297 297 298 298 298 299 298 298 301 305 307 303 299 294 293 298 304 308 306 304 308 312 311 312 311 310 313 318 318 312 311 310 304 295 290 292 297 305 313 309 300 301 298 275 246 233 229 227 225 224 224 226 228 229 230 230 230 228 225 224 224 224 222 219 219 220 221 221 218 219 220 218 220 227 233 233 236 239 240 237 239
301 299 299 300 299 297 297 298 297 298 298 297 297 299 302 303 297 292 290 292 296 301 305 303 300 306 309 307 306 305 305 309 313 313 311 311 310 306 301 294 289 288 291 300 301 297 297 296 285 268 248 235 230 228 226 225 226 228 229 230 230 231 231 229 228 228 228 228 226 224 223 224 224 222 222 222 221 222 229 237 238 237 239 240 241 245
300 300 302 302 300 298 298 298 298 298 297 295 295 297 299 297 290 287 288 290 294 298 301 299 298 303 304 304 304 302 300 303 307 308 309 311 310 308 304 294 286 283 282 282 285 288 289 288 284 276 263 249 237 231 229 228 228 229 229 229 230 231 232 232 231 231 231 231 231 229 226 226 226 226 225 225 226 227 231 237 238 236 237 239 242 245
302 302 304 302 299 298 298 298 298 298 297 296 296 296 294 290 286 285 288 291 294 297 298 297 296 298 300 302 300 295 294 298 301 305 308 311 312 310 303 291 282 278 276 272 269 275 285 286 282 276 268 259 249 238 234 233 231 231 230 230 230 230 231 233 233 233 233 232 232 232 230 229 229 228 227 229 229 230 232 236 236 236 236 239 242 245
304 303 303 301 298 297 296 297 297 298 299 299 299 296 291 287 285 286 289 292 294 295 295 295 295 296 299 301 294 287 289 294 300 306 306 306 304 300 293 283 277 273 271 270 268 270 282 287 284 278 269 260 255 248 239 240 237 236 235 232 231 231 230 232 233 235 236 234 233 233 232 232 233 231 229 230 230 230 232 236 238 239 240 241 244 246
304 301 301 300 298 296 296 298 299 298 297 297 296 292 287 284 283 286 288 289 291 292 292 292 294 295 296 295 286 281 283 289 299 303 299 296 296 297 295 287 278 274 271 269 267 263 269 278 282 282 276 266 260 259 249 245 243 243 243 239 236 235 233 233 233 234 236 237 236 234 232 233 235 236 233 232 231 231 233 236 239 242 244 245 245 245
301 300 298 299 298 296 296 297 296 294 294 293 289 285 283 283 284 286 286 287 289 288 288 289 289 290 291 287 281 280 279 284 293 295 289 289 293 297 298 290 278 274 272 267 263 252 247 267 273 274 277 274 268 267 262 254 250 247 249 248 244 241 239 238 236 235 235 237 237 236 234 234 236 239 238 236 235 234 235 237 239 241 243 245 244 243
299 298 297 297 295 293 292 289 287 288 288 286 283 282 282 283 284 284 284 285 285 283 283 284 283 283 283 278 276 278 279 283 291 289 283 286 291 293 291 286 277 270 267 266 263 252 240 257 264 265 270 274 271 270 271 266 261 254 250 251 250 249 246 245 243 240 238 238 238 238 237 236 237 240 241 240 239 238 238 240 241 242 242 242 242 242
297 297 295 293 292 291 289 285 283 283 282 281 280 281 282 282 281 281 282 282 281 280 279 279 279 278 276 273 273 274 277 283 287 284 281 286 291 291 286 279 275 271 266 265 265 259 247 247 255 258 262 268 268 267 270 275 273 265 259 255 253 253 253 252 250 247 244 242 241 240 239 238 238 240 241 242 241 240 240 242 245 246 245 243 243 244
295 294 293 291 290 288 285 284 284 282 280 280 279 280 279 279 280 280 280 279 279 279 278 277 277 276 275 274 273 274 277 280 281 280 281 285 288 287 281 275 276 275 269 264 264 264 255 245 246 249 251 256 260 262 264 268 270 269 267 263 259 256 257 258 258 255 251 247 244 243 242 241 240 241 242 242 242 242 242 244 247 250 251 250 247 247
294 293 291 289 288 286 283 282 283 282 280 279 278 277 277 277 278 278 278 278 278 279 278 277 277 276 275 274 273 275 277 277 277 278 280 282 281 278 277 278 277 271 265 262 264 264 259 250 244 241 242 245 250 256 257 257 260 265 270 269 266 264 261 261 261 264 263 257 252 249 245 243 242 242 242 243 243 244 244 244 247 251 253 254 253 253
297 294 291 289 288 285 283 281 280 280 279 277 276 277 277 277 276 276 277 277 278 278 277 277 277 277 276 274 275 276 277 278 278 277 278 278 274 271 276 281 277 268 263 262 263 261 258 254 247 241 238 238 244 251 253 255 255 255 261 268 270 270 268 266 264 265 270 270 265 261 255 250 246 245 244 244 244 244 245 245 246 249 251 251 253 254
299 296 292 291 288 285 283 282 279 278 277 276 277 278 279 278 277 276 276 277 279 279 278 277 277 277 276 277 278 277 277 279 277 275 275 272 267 268 276 278 274 271 270 264 261 259 255 253 251 245 238 236 241 247 251 256 252 244 251 263 268 273 276 275 272 267 268 274 274 270 265 260 256 251 248 247 246 246 245 245 246 247 248 248 248 246
302 299 294 290 286 284 284 283 280 278 276 276 277 277 277 277 277 276 277 279 280 279 279 279 278 278 278 279 280 280 280 279 276 275 274 268 264 268 272 270 269 272 271 266 266 267 262 255 252 248 241 236 238 241 245 251 248 240 246 257 266 277 285 285 282 276 270 269 274 277 274 267 263 259 254 251 249 248 247 246 245 244 243 243 243 239
305 302 297 290 285 284 284 282 281 280 279 277 277 276 276 275 276 277 278 280 280 279 280 280 280 279 279 279 278 279 278 277 276 277 276 271 268 269 270 268 268 269 269 268 271 272 267 260 252 248 244 239 237 236 237 241 242 238 246 262 278 289 289 286 286 283 277 270 267 272 278 274 269 264 259 254 250 248 247 246 244 242 240 239 238 237
306 303 299 291 284 283 283 283 282 281 279 277 276 276 276 276 276 276 277 277 277 278 280 281 281 280 280 280 278 278 277 276 276 277 276 274 272 272 271 269 268 267 268 271 273 271 268 263 254 248 245 241 238 235 232 231 230 225 235 252 269 283 284 283 285 286 282 276 269 265 270 278 277 270 263 257 252 248 246 245 243 240 238 236 235 234
306 302 299 295 287 282 281 281 281 280 278 276 275 275 275 276 276 275 274 274 275 277 279 279 278 279 280 280 279 278 277 276 276 276 275 275 274 274 273 270 269 268 268 271 271 270 269 264 254 247 245 242 239 235 231 227 219 217 226 233 237 246 257 269 281 285 280 277 275 267 261 268 278 276 269 263 256 250 245 242 242 240 237 236 236 235
304 301 299 298 291 284 281 280 279 278 276 276 276 276 275 274 274 274 274 274 275 276 276 276 276 277 278 278 278 278 277 276 275 274 274 274 274 274 274 273 271 269 268 269 269 269 269 264 256 249 244 243 241 236 231 226 218 216 223 229 229 228 227 241 263 272 272 274 275 270 263 260 266 275 275 270 262 254 248 243 240 240 238 238 238 238
301 299 299 299 293 287 283 281 279 277 276 276 276 276 275 274 273 273 274 274 275 275 274 274 276 276 276 275 276 277 277 276 275 274 274 274 274 274 275 275 273 269 267 268 268 268 266 263 261 254 245 242 242 238 232 226 221 218 221 227 228 224 218 221 233 245 255 265 271 271 269 263 258 265 272 275 270 261 254 247 242 239 238 239 239 239
299 297 298 297 293 286 282 281 281 280 278 277 276 276 275 275 274 274 274 274 274 274 273 274 276 275 273 274 275 275 276 276 275 275 275 275 276 275 274 274 272 269 266 266 266 265 263 260 259 257 249 241 239 239 235 228 223 220 220 220 222 223 221 221 228 239 249 257 264 269 271 267 263 263 263 264 268 266 260 252 246 242 239 238 238 238
297 296 296 295 291 284 281 281 281 279 279 278 277 276 275 274 274 274 274 274 274 273 273 274 275 273 272 272 273 274 274 275 274 274 275 275 275 274 273 272 272 269 266 264 262 260 259 257 256 255 252 243 236 236 235 230 223 221 220 216 214 219 227 230 234 241 247 253 260 265 268 269 269 269 267 262 259 260 260 255 250 245 241 238 234 232
294 294 293 292 288 283 282 281 280 278 277 276 277 276 275 275 274 273 273 273 273 273 273 272 272 272 272 272 272 272 272 272 272 273 274 274 273 274 274 274 272 269 265 262 259 256 255 254 254 253 251 246 237 232 233 231 225 220 220 217 212 216 226 231 228 228 236 247 255 260 265 270 271 267 268 269 267 264 262 260 259 255 249 244 237 230
291 291 290 288 285 283 282 282 280 276 275 274 275 275 275 275 274 273 273 273 272 272 272 271 270 271 272 272 271 270 269 270 270 271 272 273 274 275 275 274 273 271 267 263 259 257 254 252 252 252 251 247 239 232 230 230 227 221 219 219 217 218 225 227 221 218 231 245 252 255 262 270 271 264 261 265 269 271 271 268 269 266 260 256 252 245
289 288 286 284 282 282 282 282 279 276 275 274 274 274 274 274 273 273 273 272 271 271 272 271 271 271 271 269 268 267 268 270 271 271 271 272 273 275 275 274 273 272 269 264 261 258 256 252 251 251 251 249 242 234 229 228 227 223 219 218 219 221 222 222 218 212 218 238 252 257 263 271 268 255 252 261 266 269 272 272 273 272 269 267 268 263
289 286 283 280 279 280 281 280 278 276 275 275 275 275 273 271 270 270 270 270 271 272 272 272 272 271 269 268 267 267 268 269 271 271 271 272 273 274 273 273 271 270 268 267 265 262 259 255 251 249 249 248 245 237 229 226 226 224 220 217 218 220 219 218 215 205 203 221 237 243 252 265 264 246 237 248 259 263 268 272 273 272 273 274 273 271
287 284 282 280 279 279 278 277 275 274 274 275 276 274 271 269 269 269 269 269 270 270 270 270 270 270 268 268 268 269 269 270 270 270 270 271 273 272 271 270 269 268 267 267 267 264 260 255 251 248 246 245 245 241 232 225 224 225 222 217 216 217 217 215 208 199 200 211 218 222 230 244 253 248 234 234 246 256 263 268 271 271 270 271 271 269
284 283 282 281 280 279 277 275 274 273 273 274 272 270 269 269 269 269 268 268 268 268 268 268 268 268 267 267 268 269 269 270 270 271 272 272 271 270 269 268 268 267 266 266 266 264 260 255 249 246 245 242 242 242 236 226 222 223 223 219 216 215 216 214 207 201 205 210 209 211 217 225 236 242 239 232 234 245 255 262 269 271 269 267 268 267
282 282 282 281 281 280 278 276 274 274 274 271 268 268 269 269 268 267 266 266 266 267 267 267 267 266 266 266 267 268 269 269 270 272 273 272 271 270 269 269 268 267 265 264 262 261 258 254 247 243 242 241 237 237 237 229 221 220 222 220 217 214 214 214 209 206 209 210 209 209 212 217 224 231 236 237 236 241 250 258 264 269 269 266 266 268
282 282 282 282 281 281 279 277 275 275 274 271 269 269 268 267 267 266 266 266 267 267 267 267 267 267 267 267 267 267 268 270 271 272 272 272 271 271 270 269 266 265 263 261 259 257 255 252 245 238 237 238 235 232 233 230 222 217 219 221 218 214 213 213 211 209 211 213 213 211 211 215 220 224 229 236 240 245 252 257 261 265 267 267 266 266
282 282 282 281 281 280 279 278 277 276 275 273 270 268 266 266 266 266 267 268 268 268 268 268 269 269 269 268 268 269 270 271 271 272 271 270 269 268 267 266 265 264 262 260 258 255 251 248 244 237 233 233 232 229 227 228 224 217 216 219 219 214 212 212 210 209 211 213 212 209 210 216 220 222 227 235 243 252 258 259 260 262 264 266 266 265
281 281 281 280 280 280 279 278 277 276 275 274 271 268 267 267 267 267 268 268 268 268 269 269 269 270 270 270 270 271 271 272 272 271 270 268 268 268 267 266 266 264 262 259 256 253 249 246 243 239 234 230 230 228 225 224 223 217 214 216 218 215 212 211 209 208 209 210 208 204 206 217 223 223 224 229 238 250 257 258 258 259 261 265 267 268
280 279 279 279 279 279 279 278 277 276 276 274 272 270 269 269 268 269 269 270 270 270 270 271 271 271 271 272 273 273 272 272 271 270 270 270 270 270 269 268 266 263 260 258 255 253 251 247 243 240 236 231 229 228 225 223 222 218 214 213 216 216 212 210 208 207 208 207 204 199 201 211 221 224 222 217 222 234 242 248 255 258 261 263 265 268
280 279 278 278 278 277 277 277 277 277 276 274 273 272 271 271 271 271 271 272 272 272 272 273 273 273 274 274 274 274 273 271 270 270 270 271 271 269 268 266 264 262 260 257 255 253 250 246 242 239 236 233 230 228 227 224 222 220 215 213 215 216 213 209 207 206 207 206 203 200 200 204 211 218 218 214 214 223 229 233 243 254 259 261 261 263
280 279 278 278 277 277 276 276 276 276 276 274 273 272 271 271 272 273 274 274 274 273 273 274 274 274 275 275 275 274 273 272 271 271 270 270 269 267 266 264 263 261 259 256 253 250 247 244 241 238 236 234 231 229 228 226 224 222 218 214 214 215 213 209 206 205 205 206 205 203 202 202 205 210 213 214 213 216 222 223 226 242 255 258 260 263
279 279 278 278 277 277 277 276 276 277 277 275 272 271 271 272 273 274 274 274 273 272 272 273 274 275 275 275 275 274 273 273 273 273 271 269 267 266 263 262 261 259 257 254 250 247 245 242 240 238 235 234 232 230 229 227 225 223 220 216 214 215 214 209 206 204 203 204 206 205 202 202 203 205 211 217 216 215 221 222 218 227 246 255 261 264
279 278 278 278 278 277 277 277 278 279 279 276 273 272 272 273 273 273 272 272 272 272 273 273 274 274 274 274 274 274 274 273 271 270 269 268 266 264 262 260 259 257 254 251 248 244 242 240 238 236 234 233 232 230 229 228 225 223 221 218 215 215 214 210 206 204 202 201 202 204 203 203 204 206 211 216 215 216 221 221 217 221 235 250 260 263
279 279 278 278 277 278 278 278 279 279 277 276 275 274 274 273 274 274 273 273 273 273 273 273 273 274 274 274 273 272 271 269 268 267 266 265 264 263 262 260 258 255 252 248 246 243 240 238 237 235 233 232 232 230 228 227 226 223 221 219 217 216 215 211 206 204 202 200 201 204 206 205 206 208 211 210 208 214 224 225 221 221 228 240 254 260
279 279 278 277 278 279 279 278 277 277 276 276 275 273 272 273 274 275 276 275 275 275 275 275 275 275 274 272 271 269 268 267 266 264 263 263 262 262 261 259 256 253 250 247 244 241 239 237 235 234 233 232 231 230 228 226 225 223 220 218 217 217 216 212 208 205 203 201 202 206 209 208 206 208 209 207 207 213 225 230 225 222 223 228 239 252
280 280 279 279 280 279 276 276 276 276 275 275 275 274 274 274 275 275 276 276 276 277 277 276 275 274 273 271 268 266 265 264 262 261 261 261 261 259 258 256 253 251 249 246 243 240 237 236 234 233 232 231 231 230 228 226 224 222 220 218 217 218 217 214 210 206 204 203 203 206 209 210 209 208 206 208 212 215 221 227 226 221 221 221 221 230
281 280 280 280 280 277 274 275 276 275 275 274 275 276 277 277 276 276 276 277 277 277 276 275 273 270 268 267 266 264 264 263 262 262 261 259 258 256 254 252 250 249 248 246 243 239 236 234 233 232 231 230 230 230 228 226 223 220 219 218 217 218 218 216 212 208 206 204 203 205 209 210 210 208 204 206 212 215 218 224 225 219 217 216 214 218
281 279 279 279 277 274 274 276 276 275 275 275 276 277 278 278 279 279 280 280 279 277 274 271 268 265 264 264 264 264 264 264 264 263 262 261 259 256 254 253 251 249 248 246 243 238 235 233 232 231 230 229 230 229 228 226 223 220 218 217 216 217 218 217 213 209 207 205 204 204 208 210 210 209 208 207 209 212 214 221 224 220 215 214 214 215
280 277 277 276 273 273 275 276 275 274 275 277 277 278 280 281 281 281 280 278 276 272 269 266 265 265 265 265 266 267 268 268 268 267 266 266 265 261 258 256 254 251 248 246 243 238 234 232 231 230 229 228 229 229 227 225 223 220 218 216 215 216 217 217 214 210 208 207 205 204 207 209 210 211 212 212 211 211 212 216 221 220 217 217 219 221
277 276 276 274 274 275 276 275 273 273 276 278 280 283 284 283 280 276 273 271 269 268 267 266 265 266 268 271 273 275 275 274 273 270 268 266 264 262 259 258 257 254 250 246 243 239 234 231 230 229 228 227 228 229 228 225 222 220 218 216 215 215 216 216 215 211 209 208 206 205 206 209 210 212 215 215 215 216 216 218 221 222 220 220 224 228
276 276 274 273 274 276 276 276 277 279 281 281 280 281 280 277 274 271 269 267 267 267 268 269 270 272 275 278 277 275 273 271 269 268 265 262 259 257 256 255 255 254 251 247 244 241 236 232 229 228 228 227 227 228 228 225 222 219 217 216 214 214 215 215 214 212 210 209 208 206 207 209 210 212 215 216 217 218 220 220 223 224 223 223 226 230
Height
10764 10762 10762 10761 10759 10757 10755 10754 10752 10750 10749 10748 10747 10746 10745 10743 10743 10741 10738 10736 10733 10732 10731 10731 10731 10730 10728 10726 10724 10722 10720 10720 10719 10719 10719 10718 10717 10718 10717 10716 10715 10713 10712 10713 10713 10713 10713 10713 10714 10714 10715 10714 10714 10715 10715 10715 10715 10715 10716 10717 10720 10722 10724 10727 10729 10731 10732 10734 10734 10735 10736 10739 10741 10744 10746 10747 10749 10752 10752 10752 10754 10755 10755 10755 10757 10758
10761 10759 10759 10759 10757 10755 10753 10751 10750 10748 10747 10746 10745 10743 10742 10741 10740 10739 10737 10735 10733 10730 10729 10729 10729 10729 10728 10726 10724 10722 10720 10719 10718 10718 10717 10717 10717 10717 10717 10716 10715 10714 10712 10712 10712 10712 10712 10712 10713 10713 10714 10714 10714 10714 10714 10714 10714 10715 10715 10716 10718 10719 10721 10724 10726 10728 10730 10731 10731 10733 10735 10737 10740 10742 10743 10744 10747 10749 10749 10750 10752 10753 10752 10754 10756 10757
10760 10756 10756 10757 10755 10752 10751 10748 10747 10745 10744 10743 10742 10741 10739 10738 10737 10736 10735 10734 10731 10729 10727 10726 10725 10726 10726 10725 10723 10721 10720 10718 10717 10716 10716 10716 10716 10716 10716 10716 10715 10714 10713 10712 10712 10712 10711 10711 10711 10712 10712 10713 10713 10713 10713 10713 10713 10713 10714 10715 10716 10717 10719 10722 10724 10726 10726 10727 10729 10731 10733 10735 10737 10739 10740 10742 10744 10746 10746 10747 10749 10751 10752 10754 10756 10756
10757 10754 10752 10754 10753 10750 10748 10746 10744 10742 10741 10739 10739 10738 10737 10735 10735 10733 10732 10731 10730 10727 10725 10724 10723 10722 10723 10723 10722 10720 10719 10718 10716 10715 10714 10715 10715 10714 10714 10714 10714 10714 10713 10712 10711 10711 10710 10710 10710 10710 10711 10711 10712 10712 10712 10712 10712 10712 10712 10713 10714 10716 10717 10720 10722 10722 10722 10723 10726 10729 10730 10732 10734 10737 10739 10740 10741 10743 10743 10745 10747 10749 10751 10752 10754 10755
10753 10749 10748 10750 10749 10748 10745 10743 10741 10740 10738 10736 10735 10735 10734 10732 10731 10731 10730 10729 10728 10726 10724 10723 10721 10719 10719 10719 10719 10718 10717 10716 10715 10714 10712 10712 10713 10713 10713 10712 10712 10713 10712 10712 10711 10710 10709 10709 10709 10709 10709 10709 10710 10711 10711 10711 10711 10711 10711 10712 10713 10714 10716 10718 10719 10719 10719 10721 10724 10726 10727 10729 10731 10734 10736 10737 10738 10740 10741 10743 10745 10747 10749 10749 10750 10752
10750 10746 10744 10744 10744 10743 10742 10739 10738 10737 10736 10733 10730 10731 10731 10730 10728 10728 10728 10726 10725 10723 10721 10721 10721 10718 10716 10715 10716 10715 10715 10714 10714 10713 10711 10711 10711 10711 10711 10711 10710 10711 10711 10711 10710 10709 10709 10708 10708 10707 10707 10708 10708 10709 10710 10710 10710 10710 10710 10710 10711 10713 10714 10716 10717 10717 10717 10719 10722 10723 10724 10726 10728 10730 10733 10735 10736 10739 10740 10743 10744 10745 10746 10747 10748 10750
10745 10743 10742 10740 10739 10738 10738 10736 10734 10733 10732 10729 10726 10726 10728 10727 10725 10725 10725 10723 10722 10720 10718 10717 10718 10717 10714 10712 10712 10712 10711 10712 10712 10711 10709 10708 10709 10709 10709 10709 10709 10708 10709 10709 10709 10709 10708 10708 10707 10706 10706 10706 10706 10707 10708 10708 10709 10709 10709 10709 10710 10711 10712 10714 10715 10715 10716 10718 10720 10721 10721 10723 10725 10728 10730 10733 10735 10738 10740 10741 10743 10743 10744 10745 10746 10748
10740 10739 10738 10737 10735 10732 10732 10731 10729 10728 10729 10725 10721 10722 10723 10723 10722 10721 10720 10719 10718 10718 10716 10713 10712 10715 10713 10709 10708 10707 10707 10708 10709 10708 10706 10705 10705 10706 10707 10707 10706 10706 10707 10707 10706 10707 10707 10706 10705 10705 10705 10704 10704 10704 10705 10706 10707 10707 10708 10708 10709 10709 10711 10712 10713 10714 10715 10716 10717 10718 10719 10721 10723 10726 10729 10731 10733 10735 10737 10739 10740 10741 10742 10743 10744 10746
10733 10733 10733 10732 10730 10727 10726 10726 10724 10723 10723 10721 10718 10717 10718 10718 10717 10717 10716 10715 10714 10714 10714 10710 10706 10710 10710 10707 10705 10704 10703 10703 10705 10705 10704 10703 10702 10702 10703 10704 10703 10703 10704 10705 10704 10704 10704 10704 10704 10703 10703 10703 10703 10703 10703 10704 10704 10705 10706 10707 10708 10708 10709 10710 10711 10712 10713 10714 10715 10716 10718 10719 10721 10724 10726 10728 10730 10732 10735 10736 10737 10739 10740 10741 10742 10743
10726 10726 10729 10727 10723 10720 10720 10719 10718 10717 10717 10716 10714 10713 10713 10713 10713 10712 10712 10711 10710 10710 10711 10707 10703 10705 10705 10703 10701 10700 10699 10699 10700 10701 10701 10701 10701 10701 10701 10701 10701 10701 10701 10702 10702 10701 10701 10701 10701 10701 10701 10702 10701 10701 10701 10702 10702 10702 10703 10704 10705 10706 10707 10708 10710 10710 10711 10712 10713 10715 10716 10717 10719 10721 10723 10725 10727 10729 10731 10733 10734 10736 10738 10739 10740 10741
10721 10718 10722 10723 10718 10714 10714 10713 10711 10711 10710 10710 10709 10709 10708 10708 10708 10708 10707 10705 10705 10706 10705 10703 10701 10700 10700 10699 10696 10694 10695 10695 10696 10697 10698 10698 10697 10698 10699 10697 10696 10697 10697 10698 10700 10699 10698 10698 10699 10699 10699 10699 10699 10699 10700 10700 10700 10700 10701 10701 10702 10704 10705 10706 10707 10708 10709 10710 10711 10713 10714 10716 10717 10718 10720 10722 10724 10726 10727 10729 10731 10733 10735 10737 10738 10740
10717 10713 10713 10715 10714 10710 10708 10707 10706 10705 10704 10704 10704 10703 10703 10703 10702 10702 10702 10700 10700 10701 10700 10698 10696 10696 10696 10696 10693 10690 10689 10691 10693 10694 10694 10695 10694 10694 10695 10693 10692 10693 10693 10694 10696 10698 10697 10696 10697 10697 10697 10697 10697 10697 10698 10698 10698 10699 10699 10699 10700 10701 10702 10703 10704 10706 10707 10708 10709 10711 10712 10713 10714 10715 10717 10719 10721 10723 10724 10726 10728 10730 10732 10734 10736 10737
10711 10709 10707 10706 10706 10705 10703 10702 10700 10698 10698 10698 10698 10698 10697 10697 10696 10695 10695 10695 10695 10695 10694 10693 10692 10691 10692 10692 10690 10686 10685 10687 10691 10692 10690 10689 10689 10689 10690 10690 10689 10689 10690 10691 10692 10695 10696 10694 10694 10695 10695 10696 10696 10695 10696 10696 10696 10697 10697 10697 10698 10699 10699 10700 10701 10703 10704 10705 10707 10709 10710 10711 10711 10713 10715 10717 10718 10719 10721 10723 10725 10727 10729 10731 10733 10734
10704 10703 10701 10700 10698 10696 10697 10696 10694 10693 10693 10693 10692 10692 10692 10690 10689 10689 10688 10689 10690 10689 10688 10689 10689 10688 10688 10688 10686 10682 10681 10684 10688 10688 10685 10684 10685 10686 10686 10686 10685 10686 10687 10688 10688 10691 10693 10691 10691 10692 10693 10694 10695 10694 10694 10695 10695 10695 10695 10695 10696 10697 10697 10698 10699 10700 10701 10702 10704 10705 10707 10708 10708 10709 10711 10714 10715 10716 10717 10719 10721 10723 10725 10728 10730 10731
10695 10695 10694 10694 10693 10690 10690 10691 10689 10688 10688 10687 10686 10685 10686 10684 10682 10682 10682 10682 10684 10683 10683 10684 10684 10685 10684 10683 10682 10679 10676 10679 10684 10682 10679 10679 10679 10681 10682 10681 10681 10682 10683 10683 10683 10686 10689 10688 10687 10689 10690 10692 10693 10693 10692 10693 10693 10694 10693 10693 10694 10694 10695 10696 10696 10697 10698 10699 10701 10702 10703 10705 10705 10706 10708 10710 10711 10712 10713 10715 10717 10719 10722 10724 10727 10728
10687 10688 10688 10686 10687 10687 10684 10683 10684 10684 10682 10680 10679 10678 10679 10678 10675 10675 10676 10675 10675 10677 10678 10678 10678 10679 10678 10677 10677 10675 10672 10674 10679 10676 10673 10673 10674 10674 10677 10677 10676 10677 10678 10679 10679 10681 10684 10685 10684 10685 10687 10689 10690 10690 10690 10691 10691 10692 10692 10692 10692 10692 10693 10693 10694 10695 10696 10697 10698 10699 10700 10701 10702 10703 10704 10705 10707 10708 10710 10712 10714 10715 10717 10720 10723 10725
10679 10681 10681 10679 10678 10680 10679 10676 10676 10679 10676 10672 10672 10672 10671 10670 10668 10667 10668 10667 10668 10670 10672 10672 10672 10672 10671 10669 10669 10670 10668 10668 10673 10671 10666 10667 10668 10667 10670 10672 10672 10672 10674 10675 10675 10676 10678 10681 10682 10682 10683 10685 10687 10687 10687 10687 10687 10688 10689 10691 10691 10691 10691 10691 10692 10692 10693 10694 10695 10695 10696 10697 10699 10700 10700 10701 10702 10704 10706 10708 10710 10711 10713 10715 10718 10720
10671 10674 10675 10673 10671 10671 10671 10670 10670 10671 10670 10666 10664 10664 10663 10663 10661 10659 10659 10659 10660 10663 10665 10664 10664 10665 10664 10662 10662 10663 10663 10662 10666 10666 10661 10659 10661 10661 10663 10665 10666 10667 10668 10670 10671 10671 10673 10675 10677 10679 10679 10681 10682 10683 10683 10683 10683 10683 10685 10687 10689 10690 10690 10689 10690 10691 10691 10691 10692 10692 10693 10694 10695 10696 10696 10697 10699 10700 10702 10704 10706 10708 10710 10711 10713 10716
10662 10667 10669 10666 10663 10661 10661 10663 10663 10663 10661 10657 10656 10656 10655 10654 10654 10651 10650 10651 10652 10655 10658 10658 10657 10657 10656 10654 10655 10656 10657 10656 10658 10659 10657 10654 10654 10655 10656 10658 10660 10662 10663 10664 10665 10666 10667 10669 10671 10673 10675 10676 10677 10678 10678 10678 10678 10679 10680 10683 10685 10687 10689 10689 10689 10690 10689 10689 10690 10690 10690 10691 10691 10692 10692 10694 10695 10696 10698 10700 10702 10704 10706 10708 10710 10712
10654 10657 10663 10661 10655 10651 10652 10654 10655 10655 10653 10648 10648 10651 10648 10645 10645 10643 10641 10642 10644 10645 10648 10651 10652 10649 10646 10647 10647 10647 10650 10650 10649 10650 10651 10650 10648 10648 10650 10652 10654 10655 10656 10658 10659 10660 10662 10663 10664 10667 10669 10671 10671 10672 10674 10674 10676 10677 10677 10680 10682 10684 10687 10688 10689 10689 10688 10688 10688 10688 10688 10688 10688 10688 10688 10689 10691 10692 10694 10696 10698 10700 10702 10704 10707 10709
10647 10647 10654 10655 10646 10642 10644 10644 10644 10644 10643 10641 10641 10643 10641 10637 10635 10633 10632 10634 10634 10635 10637 10640 10643 10641 10639 10640 10638 10637 10640 10641 10639 10641 10643 10644 10642 10642 10644 10646 10647 10648 10649 10650 10652 10653 10655 10657 10658 10660 10663 10665 10667 10667 10669 10672 10674 10676 10678 10679 10681 10684 10685 10687 10688 10688 10688 10687 10687 10686 10686 10686 10686 10685 10685 10686 10687 10689 10691 10693 10694 10696 10698 10700 10702 10704
10639 10637 10641 10644 10638 10634 10635 10634 10634 10634 10632 10633 10634 10633 10631 10630 10627 10623 10625 10627 10623 10623 10628 10630 10631 10632 10631 10632 10630 10629 10631 10631 10630 10632 10633 10632 10632 10634 10638 10639 10639 10640 10640 10641 10644 10646 10648 10650 10652 10654 10656 10659 10662 10663 10666 10668 10671 10676 10680 10681 10682 10683 10682 10684 10686 10686 10686 10686 10686 10685 10685 10684 10684 10684 10683 10683 10684 10686 10688 10690 10691 10693 10694 10696 10698 10700
10630 10626 10629 10633 10629 10627 10627 10624 10623 10623 10621 10622 10625 10625 10621 10620 10620 10616 10615 10617 10613 10613 10620 10620 10619 10622 10622 10621 10621 10622 10624 10622 10621 10624 10622 10620 10621 10624 10630 10632 10630 10630 10631 10632 10635 10637 10640 10643 10645 10647 10649 10652 10656 10659 10662 10665 10668 10672 10677 10681 10685 10685 10683 10681 10681 10683 10684 10685 10685 10684 10684 10683 10683 10683 10682 10682 10682 10683 10685 10687 10688 10690 10691 10693 10695 10696
10619 10615 10616 10620 10620 10619 10619 10615 10612 10610 10608 10608 10614 10618 10614 10611 10610 10605 10603 10606 10605 10608 10612 10609 10608 10613 10614 10610 10608 10611 10615 10612 10611 10614 10611 10608 10610 10613 10618 10623 10622 10620 10621 10623 10625 10628 10631 10635 10638 10640 10643 10646 10649 10653 10657 10661 10662 10662 10664 10668 10672 10678 10682 10684 10682 10679 10679 10682 10683 10683 10683 10682 10682 10681 10681 10681 10681 10682 10683 10684 10685 10687 10688 10689 10691 10693
10609 10604 10604 10608 10609 10609 10609 10604 10600 10597 10595 10596 10603 10607 10606 10603 10599 10592 10590 10592 10595 10603 10603 10594 10597 10607 10606 10600 10596 10598 10602 10603 10601 10602 10601 10598 10599 10601 10604 10612 10615 10611 10609 10613 10616 10619 10623 10627 10631 10634 10636 10638 10642 10646 10651 10655 10656 10654 10654 10654 10656 10662 10671 10678 10681 10678 10675 10676 10680 10682 10682 10681 10680 10680 10680 10680 10680 10681 10681 10681 10682 10683 10685 10686 10688 10689
10598 10595 10595 10596 10596 10598 10598 10591 10585 10584 10584 10586 10592 10594 10592 10592 10589 10583 10580 10579 10584 10592 10589 10582 10588 10597 10595 10590 10588 10587 10588 10590 10590 10590 10589 10587 10588 10591 10592 10600 10606 10602 10598 10602 10608 10612 10615 10619 10623 10626 10628 10630 10634 10638 10644 10648 10649 10649 10650 10650 10651 10655 10659 10663 10669 10673 10672 10673 10677 10680 10681 10681 10679 10679 10679 10679 10679 10680 10680 10680 10680 10681 10682 10683 10685 10686
10587 10586 10586 10585 10585 10587 10586 10579 10572 10570 10571 10574 10580 10583 10581 10578 10575 10571 10568 10569 10573 10574 10574 10577 10580 10582 10582 10581 10580 10578 10575 10575 10576 10575 10576 10575 10576 10580 10582 10585 10591 10591 10588 10592 10599 10602 10605 10610 10613 10615 10617 10620 10625 10630 10635 10640 10643 10643 10644 10647 10649 10651 10652 10654 10661 10668 10671 10672 10674 10678 10679 10679 10679 10678 10677 10677 10678 10679 10679 10679 10679 10679 10680 10681 10682 10683
10574 10575 10576 10573 10573 10574 10572 10568 10562 10557 10557 10560 10565 10570 10570 10566 10562 10557 10554 10558 10559 10555 10561 10572 10568 10562 10569 10573 10571 10569 10564 10561 10560 10560 10563 10564 10563 10566 10568 10570 10578 10580 10578 10582 10587 10590 10595 10600 10602 10603 10605 10609 10614 10620 10625 10631 10636 10638 10638 10641 10644 10645 10647 10651 10659 10667 10671 10672 10673 10676 10678 10677 10677 10677 10676 10676 10677 10677 10678 10678 10678 10678 10679 10679 10679 10680
10564 10565 10564 10558 10560 10563 10559 10555 10551 10546 10545 10547 10550 10554 10556 10554 10549 10544 10542 10546 10546 10539 10547 10560 10555 10547 10556 10563 10562 10558 10552 10547 10547 10548 10550 10550 10549 10552 10555 10558 10563 10566 10569 10571 10572 10577 10584 10589 10590 10591 10594 10598 10604 10609 10614 10620 10627 10631 10633 10634 10637 10639 10640 10645 10654 10662 10668 10670 10672 10675 10676 10675 10674 10673 10673 10674 10675 10675 10675 10676 10677 10677 10677 10678 10678 10679
10555 10557 10552 10545 10546 10550 10546 10540 10537 10534 10533 10535 10538 10541 10542 10539 10532 10528 10530 10534 10531 10525 10530 10542 10542 10540 10546 10550 10549 10544 10536 10533 10535 10538 10539 10535 10536 10540 10542 10545 10548 10551 10557 10557 10554 10562 10573 10576 10579 10581 10584 10588 10592 10597 10603 10609 10616 10623 10626 10628 10630 10633 10636 10641 10650 10661 10668 10672 10673 10674 10674 10673 10671 10669 10667 10668 10670 10672 10673 10673 10674 10675 10675 10676 10677 10677
10542 10546 10542 10534 10533 10537 10535 10524 10518 10519 10520 10523 10529 10532 10530 10523 10515 10512 10515 10517 10514 10512 10517 10522 10526 10534 10539 10533 10529 10528 10524 10521 10522 10526 10526 10523 10526 10530 10528 10530 10533 10534 10538 10536 10536 10549 10561 10563 10567 10572 10573 10575 10580 10585 10591 10598 10605 10612 10617 10621 10624 10627 10632 10638 10646 10657 10670 10676 10675 10674 10673 10671 10668 10664 10662 10663 10664 10667 10670 10671 10671 10672 10673 10674 10675 10675
10522 10528 10529 10524 10521 10528 10525 10509 10502 10504 10504 10510 10522 10524 10515 10505 10500 10500 10501 10500 10500 10501 10503 10504 10509 10521 10524 10515 10510 10512 10513 10510 10510 10512 10511 10510 10516 10519 10516 10515 10517 10517 10518 10516 10521 10537 10546 10548 10555 10560 10560 10562 10567 10573 10580 10587 10594 10600 10607 10612 10616 10620 10626 10633 10640 10651 10664 10671 10670 10670 10670 10669 10665 10662 10660 10661 10661 10662 10665 10668 10669 10669 10670 10671 10672 10672
10504 10506 10510 10508 10507 10516 10514 10498 10489 10488 10492 10506 10515 10505 10494 10490 10487 10487 10486 10486 10489 10490 10488 10490 10494 10501 10504 10499 10495 10494 10496 10497 10496 10496 10498 10501 10504 10504 10501 10499 10499 10500 10502 10502 10509 10521 10526 10530 10539 10544 10545 10550 10555 10560 10567 10575 10582 10588 10595 10603 10608 10612 10618 10624 10631 10637 10643 10647 10652 10658 10664 10666 10664 10660 10657 10659 10661 10661 10661 10663 10665 10667 10668 10668 10668 10669
10491 10488 10490 10488 10487 10496 10499 10486 10472 10471 10486 10504 10500 10484 10480 10480 10475 10471 10471 10473 10476 10475 10473 10476 10480 10484 10486 10485 10482 10479 10480 10481 10478 10478 10484 10489 10489 10484 10482 10483 10484 10484 10488 10492 10496 10501 10506 10512 10521 10526 10531 10537 10542 10547 10553 10561 10569 10576 10584 10592 10598 10603 10608 10614 10620 10622 10622 10625 10632 10641 10650 10654 10654 10653 10652 10653 10657 10658 10658 10659 10661 10663 10665 10665 10665 10666
10477 10474 10472 10469 10466 10472 10480 10471 10456 10458 10477 10489 10483 10474 10471 10466 10458 10453 10455 10460 10464 10462 10460 10460 10463 10468 10471 10470 10468 10467 10466 10464 10463 10467 10469 10468 10466 10465 10466 10470 10470 10470 10474 10478 10480 10482 10486 10492 10500 10509 10515 10520 10526 10532 10537 10546 10554 10563 10571 10579 10585 10592 10597 10602 10608 10611 10613 10616 10619 10623 10629 10633 10635 10639 10643 10647 10651 10653 10654 10655 10656 10658 10661 10662 10662 10662
10463 10459 10454 10451 10448 10450 10455 10452 10443 10446 10461 10471 10471 10466 10457 10447 10440 10436 10437 10446 10453 10451 10447 10445 10445 10450 10455 10455 10453 10453 10452 10450 10451 10455 10453 10447 10447 10450 10452 10452 10452 10453 10457 10458 10460 10464 10467 10472 10481 10491 10498 10503 10508 10514 10520 10529 10539 10548 10557 10564 10572 10580 10586 10591 10598 10602 10605 10608 10609 10613 10618 10620 10622 10628 10635 10641 10646 10649 10650 10650 10652 10654 10656 10657 10658 10659
10447 10443 10437 10433 10432 10431 10431 10432 10430 10431 10442 10455 10456 10449 10439 10429 10424 10420 10422 10434 10440 10435 10431 10432 10431 10433 10436 10436 10436 10439 10440 10437 10438 10439 10434 10429 10431 10435 10436 10435 10434 10436 10439 10440 10442 10446 10449 10456 10465 10474 10481 10485 10489 10495 10504 10513 10522 10533 10543 10550 10558 10567 10574 10580 10587 10592 10595 10598 10599 10605 10612 10616 10619 10625 10631 10638 10643 10647 10647 10646 10647 10649 10651 10652 10653 10655
10431 10427 10420 10414 10416 10416 10412 10413 10415 10416 10427 10440 10436 10428 10421 10414 10408 10406 10409 10419 10426 10420 10416 10418 10417 10416 10417 10417 10419 10425 10426 10422 10423 10422 10414 10412 10418 10421 10420 10418 10419 10421 10422 10424 10427 10430 10436 10444 10452 10457 10463 10468 10473 10480 10487 10496 10505 10517 10528 10536 10545 10553 10560 10568 10576 10582 10586 10588 10592 10601 10610 10615 10617 10620 10626 10633 10640 10646 10647 10643 10642 10643 10645 10646 10648 10650
10415 10412 10407 10399 10400 10402 10396 10393 10395 10401 10414 10422 10417 10410 10404 10396 10393 10393 10395 10404 10413 10407 10399 10400 10400 10399 10401 10402 10404 10410 10411 10408 10408 10404 10398 10401 10409 10407 10402 10402 10404 10406 10408 10410 10413 10418 10425 10432 10437 10441 10447 10453 10460 10465 10472 10480 10490 10501 10512 10521 10530 10539 10547 10556 10565 10571 10576 10580 10586 10594 10602 10607 10610 10612 10616 10621 10628 10635 10640 10640 10638 10638 10639 10641 10643 10644
10395 10394 10392 10388 10387 10387 10383 10377 10377 10384 10398 10404 10399 10394 10388 10380 10378 10378 10381 10391 10398 10391 10384 10384 10383 10382 10386 10387 10389 10394 10395 10392 10393 10390 10387 10391 10394 10389 10386 10387 10389 10392 10395 10398 10401 10405 10410 10414 10419 10425 10431 10438 10444 10451 10458 10467 10477 10487 10498 10507 10516 10526 10534 10543 10552 10560 10566 10573 10579 10584 10589 10593 10597 10602 10606 10609 10613 10618 10625 10631 10634 10634 10634 10635 10637 10638
10377 10374 10373 10373 10371 10369 10368 10366 10362 10366 10381 10388 10383 10378 10372 10366 10364 10364 10369 10377 10381 10376 10371 10369 10367 10368 10371 10372 10374 10378 10378 10377 10378 10377 10376 10378 10377 10372 10372 10374 10376 10380 10382 10384 10387 10391 10395 10399 10404 10410 10416 10422 10428 10436 10445 10454 10464 10474 10484 10493 10502 10512 10520 10528 10538 10548 10556 10564 10570 10574 10578 10582 10585 10591 10597 10601 10604 10608 10614 10622 10628 10630 10630 10630 10631 10633
10363 10358 10355 10357 10357 10354 10352 10351 10346 10351 10365 10370 10364 10361 10358 10353 10352 10355 10358 10361 10361 10361 10360 10356 10354 10356 10358 10359 10360 10362 10362 10363 10363 10363 10362 10362 10360 10358 10359 10363 10365 10367 10368 10370 10373 10377 10381 10386 10391 10396 10402 10408 10413 10421 10430 10440 10452 10462 10472 10481 10490 10498 10506 10515 10525 10535 10545 10554 10560 10564 10569 10573 10576 10581 10587 10593 10597 10603 10608 10614 10619 10623 10625 10626 10626 10627
10348 10343 10341 10343 10343 10339 10337 10335 10334 10339 10347 10347 10344 10346 10345 10341 10341 10343 10345 10345 10346 10347 10348 10347 10345 10345 10345 10348 10348 10348 10349 10349 10349 10349 10348 10347 10346 10346 10348 10351 10353 10353 10354 10357 10361 10364 10369 10374 10378 10383 10389 10394 10399 10407 10415 10426 10438 10449 10459 10469 10476 10482 10492 10504 10513 10523 10534 10544 10551 10555 10559 10564 10568 10572 10578 10584 10591 10597 10601 10606 10610 10614 10618 10622 10622 10621
10334 10331 10328 10328 10328 10326 10323 10324 10327 10328 10326 10324 10328 10332 10330 10326 10326 10327 10329 10332 10335 10336 10336 10337 10336 10334 10334 10336 10337 10335 10335 10335 10335 10336 10336 10335 10335 10335 10337 10340 10341 10340 10341 10345 10349 10353 10358 10362 10367 10371 10377 10382 10387 10394 10402 10412 10424 10436 10447 10456 10462 10468 10480 10493 10502 10512 10523 10533 10541 10546 10550 10555 10562 10567 10572 10578 10583 10588 10593 10597 10602 10607 10611 10616 10618 10616
10321 10318 10312 10312 10318 10317 10311 10311 10317 10315 10309 10309 10313 10314 10314 10314 10315 10314 10315 10318 10320 10322 10324 10325 10326 10323 10321 10323 10324 10323 10321 10322 10323 10324 10324 10323 10323 10324 10326 10329 10329 10328 10331 10335 10339 10343 10348 10352 10357 10361 10366 10371 10376 10382 10390 10400 10411 10423 10433 10442 10449 10457 10469 10481 10490 10501 10512 10522 10531 10538 10543 10548 10555 10561 10566 10571 10575 10580 10584 10587 10594 10600 10603 10605 10610 10614
10309 10305 10298 10299 10307 10306 10296 10297 10305 10303 10297 10296 10295 10296 10301 10305 10306 10305 10304 10305 10308 10310 10312 10313 10313 10311 10307 10307 10309 10309 10308 10308 10309 10311 10312 10312 10312 10313 10315 10317 10317 10318 10321 10325 10329 10334 10338 10343 10348 10352 10356 10360 10365 10371 10379 10388 10399 10411 10420 10429 10438 10447 10457 10468 10480 10490 10501 10512 10521 10529 10535 10542 10547 10553 10559 10564 10568 10573 10576 10577 10584 10592 10595 10594 10598 10604
10298 10292 10285 10288 10293 10286 10280 10288 10295 10291 10287 10285 10282 10283 10288 10291 10292 10294 10294 10295 10298 10300 10300 10299 10298 10296 10294 10292 10292 10295 10296 10296 10298 10300 10302 10302 10302 10304 10305 10306 10307 10309 10312 10316 10321 10326 10330 10334 10339 10343 10346 10351 10355 10360 10368 10378 10388 10399 10408 10417 10427 10435 10443 10456 10469 10480 10490 10501 10511 10519 10527 10534 10539 10543 10549 10554 10559 10565 10571 10573 10576 10584 10587 10586 10585 10589
10284 10277 10277 10279 10274 10265 10267 10282 10286 10278 10274 10273 10271 10274 10277 10277 10280 10283 10284 10285 10287 10286 10285 10284 10281 10281 10281 10281 10281 10284 10286 10288 10290 10291 10292 10292 10294 10297 10298 10298 10300 10302 10305 10310 10314 10318 10323 10326 10330 10333 10338 10342 10346 10351 10359 10368 10378 10388 10397 10407 10416 10423 10432 10444 10458 10469 10479 10489 10500 10510 10519 10526 10531 10535 10538 10543 10549 10556 10564 10568 10570 10574 10579 10578 10576 10578
10262 10263 10268 10264 10254 10253 10263 10275 10273 10266 10263 10262 10261 10265 10268 10268 10270 10274 10275 10274 10273 10270 10270 10270 10268 10269 10271 10272 10273 10275 10278 10281 10282 10283 10285 10287 10289 10291 10292 10293 10294 10297 10299 10303 10306 10311 10315 10318 10321 10325 10330 10334 10337 10342 10349 10359 10368 10378 10388 10396 10405 10413 10422 10433 10447 10459 10469 10479 10490 10501 10509 10516 10522 10527 10531 10536 10541 10546 10551 10555 10558 10562 10568 10570 10568 10568
10244 10251 10256 10247 10241 10249 10258 10260 10257 10255 10257 10257 10254 10256 10260 10258 10257 10261 10263 10262 10259 10257 10257 10259 10259 10261 10262 10264 10267 10269 10271 10273 10274 10274 10277 10280 10281 10282 10284 10285 10287 10290 10292 10296 10300 10304 10308 10311 10314 10318 10322 10326 10329 10334 10341 10351 10360 10369 10378 10386 10395 10404 10413 10423 10436 10449 10459 10469 10480 10491 10498 10505 10513 10518 10522 10527 10533 10537 10540 10543 10546 10550 10555 10559 10560 10561
10232 10240 10243 10236 10235 10242 10246 10247 10247 10248 10251 10252 10250 10250 10250 10246 10243 10246 10250 10249 10248 10248 10249 10250 10253 10255 10257 10259 10260 10260 10262 10264 10263 10264 10267 10270 10271 10273 10274 10276 10279 10283 10285 10290 10295 10299 10302 10305 10308 10312 10315 10318 10321 10326 10333 10343 10352 10360 10369 10377 10385 10395 10405 10415 10427 10440 10450 10459 10470 10480 10488 10494 10501 10507 10513 10519 10524 10527 10531 10534 10537 10540 10544 10549 10551 10553